Time,TemperatureF,DewpointF,PressureIn,WindDirection,WindDirectionDegrees,WindSpeedMPH,WindSpeedGustMPH,Humidity,HourlyPrecipIn,Conditions,Clouds,dailyrainin,SolarRadiationWatts/m^2,SoftwareType,DateUTC
2013-04-25 00:01:00,47.0,47.0,-100.00,West,264,18.0,25.0,100,0.00,,,0.00,0.000000,,2013-04-25 07:01:00,
2013-04-25 00:11:00,47.0,47.0,-100.00,West,264,18.0,25.0,100,0.00,,,0.00,0.000000,,2013-04-25 07:11:00,
2013-04-25 00:21:00,47.0,47.0,-100.00,West,264,18.0,25.0,100,0.00,,,0.00,0.000000,,2013-04-25 07:21:00,
2013-04-25 00:52:00,48.0,47.0,-100.00,West,265,17.0,22.0,96,0.00,,,0.00,0.000000,,2013-04-25 07:52:00,
2013-04-25 01:01:00,48.0,47.0,-100.00,West,265,17.0,22.0,96,0.00,,,0.00,0.000000,,2013-04-25 08:01:00,
2013-04-25 01:11:00,48.0,47.0,-100.00,West,265,17.0,22.0,96,0.00,,,0.00,0.000000,,2013-04-25 08:11:00,
2013-04-25 01:21:00,48.0,47.0,-100.00,West,265,17.0,22.0,96,0.00,,,0.00,0.000000,,2013-04-25 08:21:00,
2013-04-25 01:52:00,49.0,47.0,-100.00,West,267,18.0,23.0,94,0.00,,,0.00,0.000000,,2013-04-25 08:52:00,
2013-04-25 02:01:00,49.0,47.0,-100.00,West,267,18.0,23.0,94,0.00,,,0.00,0.000000,,2013-04-25 09:01:00,
2013-04-25 02:11:00,49.0,47.0,-100.00,West,267,18.0,23.0,94,0.00,,,0.00,0.000000,,2013-04-25 09:11:00,
2013-04-25 02:21:00,49.0,47.0,-100.00,West,267,18.0,23.0,94,0.00,,,0.00,0.000000,,2013-04-25 09:21:00,
2013-04-25 02:52:00,47.0,46.0,-100.00,West,269,21.0,28.0,98,0.00,,,0.00,0.000000,,2013-04-25 09:52:00,
2013-04-25 03:02:00,47.0,46.0,-100.00,West,269,21.0,28.0,98,0.00,,,0.00,0.000000,,2013-04-25 10:02:00,
2013-04-25 03:12:00,47.0,46.0,-100.00,West,269,21.0,28.0,98,0.00,,,0.00,0.000000,,2013-04-25 10:12:00,
2013-04-25 03:22:00,47.0,46.0,-100.00,West,269,21.0,28.0,98,0.00,,,0.00,0.000000,,2013-04-25 10:22:00,
2013-04-25 03:53:00,46.0,46.0,-100.00,West,267,24.0,31.0,100,0.00,,,0.00,0.000000,,2013-04-25 10:53:00,
2013-04-25 04:02:00,46.0,46.0,-100.00,West,267,24.0,31.0,100,0.00,,,0.00,0.000000,,2013-04-25 11:02:00,
2013-04-25 04:12:00,46.0,46.0,-100.00,West,267,24.0,31.0,100,0.00,,,0.00,0.000000,,2013-04-25 11:12:00,
2013-04-25 04:22:00,46.0,46.0,-100.00,West,267,24.0,31.0,100,0.00,,,0.00,0.000000,,2013-04-25 11:22:00,
2013-04-25 04:52:00,47.0,47.0,-100.00,West,268,25.0,34.0,100,0.00,,,0.00,0.000000,,2013-04-25 11:52:00,
2013-04-25 05:01:00,47.0,47.0,-100.00,West,268,25.0,34.0,100,0.00,,,0.00,0.000000,,2013-04-25 12:01:00,
2013-04-25 05:12:00,47.0,47.0,-100.00,West,268,25.0,34.0,100,0.00,,,0.00,0.000000,,2013-04-25 12:12:00,
2013-04-25 05:21:00,47.0,47.0,-100.00,West,268,25.0,34.0,100,0.00,,,0.00,0.000000,,2013-04-25 12:21:00,
2013-04-25 05:52:00,47.0,47.0,-100.00,West,270,26.0,39.0,100,0.00,,,0.00,0.000000,,2013-04-25 12:52:00,
2013-04-25 06:02:00,47.0,47.0,-100.00,West,270,26.0,39.0,100,0.00,,,0.00,0.000000,,2013-04-25 13:02:00,
2013-04-25 06:11:00,47.0,47.0,-100.00,West,270,26.0,39.0,100,0.00,,,0.00,0.000000,,2013-04-25 13:11:00,
2013-04-25 06:21:00,47.0,47.0,-100.00,West,270,26.0,39.0,100,0.00,,,0.00,0.000000,,2013-04-25 13:21:00,
2013-04-25 06:52:00,47.0,47.0,-100.00,West,266,23.0,33.0,100,0.00,,,0.00,1.000000,,2013-04-25 13:52:00,
2013-04-25 07:01:00,47.0,47.0,-100.00,West,266,23.0,33.0,100,0.00,,,0.00,1.000000,,2013-04-25 14:01:00,
2013-04-25 07:11:00,47.0,47.0,-100.00,West,266,23.0,33.0,100,0.00,,,0.00,1.000000,,2013-04-25 14:11:00,
2013-04-25 07:21:00,47.0,47.0,-100.00,West,266,23.0,33.0,100,0.00,,,0.00,1.000000,,2013-04-25 14:21:00,
2013-04-25 07:52:00,48.0,48.0,-100.00,West,269,24.0,32.0,100,0.00,,,0.00,92.000000,,2013-04-25 14:52:00,
2013-04-25 08:02:00,48.0,48.0,-100.00,West,269,24.0,32.0,100,0.00,,,0.00,92.000000,,2013-04-25 15:02:00,
2013-04-25 08:11:00,48.0,48.0,-100.00,West,269,24.0,32.0,100,0.00,,,0.00,92.000000,,2013-04-25 15:11:00,
2013-04-25 08:21:00,48.0,48.0,-100.00,West,269,24.0,32.0,100,0.00,,,0.00,92.000000,,2013-04-25 15:21:00,
2013-04-25 08:53:00,50.0,49.0,-100.00,West,269,22.0,33.0,96,0.00,,,0.00,290.000000,,2013-04-25 15:53:00,
2013-04-25 09:02:00,50.0,49.0,-100.00,West,269,22.0,33.0,96,0.00,,,0.00,290.000000,,2013-04-25 16:02:00,
2013-04-25 09:13:00,50.0,49.0,-100.00,West,269,22.0,33.0,96,0.00,,,0.00,290.000000,,2013-04-25 16:13:00,
2013-04-25 09:24:00,50.0,49.0,-100.00,West,269,22.0,33.0,96,0.00,,,0.00,290.000000,,2013-04-25 16:24:00,
2013-04-25 09:52:00,52.0,49.0,-100.00,West,269,23.0,32.0,91,0.00,,,0.00,481.000000,,2013-04-25 16:52:00,
2013-04-25 10:02:00,52.0,49.0,-100.00,West,269,23.0,32.0,91,0.00,,,0.00,481.000000,,2013-04-25 17:02:00,
2013-04-25 10:11:00,52.0,49.0,-100.00,West,269,23.0,32.0,91,0.00,,,0.00,481.000000,,2013-04-25 17:11:00,
2013-04-25 10:22:00,52.0,49.0,-100.00,West,269,23.0,32.0,91,0.00,,,0.00,481.000000,,2013-04-25 17:22:00,
2013-04-25 10:53:00,55.0,49.0,-100.00,West,272,20.0,27.0,81,0.00,,,0.00,636.000000,,2013-04-25 17:53:00,
2013-04-25 11:01:00,55.0,49.0,-100.00,West,272,20.0,27.0,81,0.00,,,0.00,636.000000,,2013-04-25 18:01:00,
2013-04-25 11:11:00,55.0,49.0,-100.00,West,272,20.0,27.0,81,0.00,,,0.00,636.000000,,2013-04-25 18:11:00,
2013-04-25 11:21:00,55.0,49.0,-100.00,West,272,20.0,27.0,81,0.00,,,0.00,636.000000,,2013-04-25 18:21:00,
2013-04-25 11:53:00,57.0,50.0,-100.00,West,271,21.0,28.0,76,0.00,,,0.00,783.000000,,2013-04-25 18:53:00,
2013-04-25 12:01:00,57.0,50.0,-100.00,West,271,21.0,28.0,76,0.00,,,0.00,783.000000,,2013-04-25 19:01:00,
2013-04-25 12:12:00,57.0,50.0,-100.00,West,271,21.0,28.0,76,0.00,,,0.00,783.000000,,2013-04-25 19:12:00,
2013-04-25 12:21:00,57.0,50.0,-100.00,West,271,21.0,28.0,76,0.00,,,0.00,783.000000,,2013-04-25 19:21:00,
2013-04-25 12:52:00,56.0,49.0,-100.00,West,272,21.0,27.0,77,0.00,,,0.00,882.000000,,2013-04-25 19:52:00,
2013-04-25 13:01:00,56.0,49.0,-100.00,West,272,21.0,27.0,77,0.00,,,0.00,882.000000,,2013-04-25 20:01:00,
2013-04-25 13:11:00,56.0,49.0,-100.00,West,272,21.0,27.0,77,0.00,,,0.00,882.000000,,2013-04-25 20:11:00,
2013-04-25 13:22:00,56.0,49.0,-100.00,West,272,21.0,27.0,77,0.00,,,0.00,882.000000,,2013-04-25 20:22:00,
2013-04-25 13:52:00,58.0,50.0,-100.00,West,272,20.0,26.0,74,0.00,,,0.00,924.000000,,2013-04-25 20:52:00,
2013-04-25 14:01:00,58.0,50.0,-100.00,West,272,20.0,26.0,74,0.00,,,0.00,924.000000,,2013-04-25 21:01:00,
2013-04-25 14:11:00,58.0,50.0,-100.00,West,272,20.0,26.0,74,0.00,,,0.00,924.000000,,2013-04-25 21:11:00,
2013-04-25 14:21:00,58.0,50.0,-100.00,West,272,20.0,26.0,74,0.00,,,0.00,924.000000,,2013-04-25 21:21:00,
2013-04-25 14:53:00,58.0,49.0,-100.00,West,273,22.0,28.0,73,0.00,,,0.00,907.000000,,2013-04-25 21:53:00,
2013-04-25 15:02:00,58.0,49.0,-100.00,West,273,22.0,28.0,73,0.00,,,0.00,907.000000,,2013-04-25 22:02:00,
2013-04-25 15:12:00,58.0,49.0,-100.00,West,273,22.0,28.0,73,0.00,,,0.00,907.000000,,2013-04-25 22:12:00,
2013-04-25 15:22:00,58.0,49.0,-100.00,West,273,22.0,28.0,73,0.00,,,0.00,907.000000,,2013-04-25 22:22:00,
2013-04-25 15:53:00,58.0,48.0,-100.00,West,272,23.0,29.0,69,0.00,,,0.00,835.000000,,2013-04-25 22:53:00,
2013-04-25 16:02:00,58.0,48.0,-100.00,West,272,23.0,29.0,69,0.00,,,0.00,835.000000,,2013-04-25 23:02:00,
2013-04-25 16:12:00,58.0,48.0,-100.00,West,272,23.0,29.0,69,0.00,,,0.00,835.000000,,2013-04-25 23:12:00,
2013-04-25 16:21:00,58.0,48.0,-100.00,West,272,23.0,29.0,69,0.00,,,0.00,835.000000,,2013-04-25 23:21:00,
2013-04-25 16:52:00,60.0,47.0,-100.00,West,270,22.0,29.0,61,0.00,,,0.00,705.000000,,2013-04-25 23:52:00,
2013-04-25 17:01:00,60.0,47.0,-100.00,West,270,22.0,29.0,61,0.00,,,0.00,705.000000,,2013-04-26 00:01:00,
2013-04-25 17:11:00,60.0,47.0,-100.00,West,270,22.0,29.0,61,0.00,,,0.00,705.000000,,2013-04-26 00:11:00,
2013-04-25 17:21:00,60.0,47.0,-100.00,West,270,22.0,29.0,61,0.00,,,0.00,705.000000,,2013-04-26 00:21:00,
2013-04-25 17:52:00,59.0,45.0,-100.00,West,271,23.0,29.0,60,0.00,,,0.00,538.000000,,2013-04-26 00:52:00,
2013-04-25 18:01:00,59.0,45.0,-100.00,West,271,23.0,29.0,60,0.00,,,0.00,538.000000,,2013-04-26 01:01:00,
2013-04-25 18:11:00,59.0,45.0,-100.00,West,271,23.0,29.0,60,0.00,,,0.00,538.000000,,2013-04-26 01:11:00,
2013-04-25 18:21:00,59.0,45.0,-100.00,West,271,23.0,29.0,60,0.00,,,0.00,538.000000,,2013-04-26 01:21:00,
2013-04-25 18:52:00,56.0,45.0,-100.00,West,270,18.0,28.0,67,0.00,,,0.00,336.000000,,2013-04-26 01:52:00,
2013-04-25 19:01:00,56.0,45.0,-100.00,West,270,18.0,28.0,67,0.00,,,0.00,336.000000,,2013-04-26 02:01:00,
2013-04-25 19:11:00,56.0,45.0,-100.00,West,270,18.0,28.0,67,0.00,,,0.00,336.000000,,2013-04-26 02:11:00,
2013-04-25 19:21:00,56.0,45.0,-100.00,West,270,18.0,28.0,67,0.00,,,0.00,336.000000,,2013-04-26 02:21:00,
2013-04-25 19:52:00,52.0,45.0,-100.00,West,270,18.0,26.0,78,0.00,,,0.00,139.000000,,2013-04-26 02:52:00,
2013-04-25 20:01:00,52.0,45.0,-100.00,West,270,18.0,26.0,78,0.00,,,0.00,139.000000,,2013-04-26 03:01:00,
2013-04-25 20:11:00,52.0,45.0,-100.00,West,270,18.0,26.0,78,0.00,,,0.00,139.000000,,2013-04-26 03:11:00,
2013-04-25 20:21:00,52.0,45.0,-100.00,West,270,18.0,26.0,78,0.00,,,0.00,139.000000,,2013-04-26 03:21:00,
2013-04-25 20:53:00,48.0,45.0,-100.00,West,262,15.0,22.0,91,0.00,,,0.00,8.000000,,2013-04-26 03:53:00,
2013-04-25 21:02:00,48.0,45.0,-100.00,West,262,15.0,22.0,91,0.00,,,0.00,8.000000,,2013-04-26 04:02:00,
2013-04-25 21:12:00,48.0,45.0,-100.00,West,262,15.0,22.0,91,0.00,,,0.00,8.000000,,2013-04-26 04:12:00,
2013-04-25 21:22:00,48.0,45.0,-100.00,West,262,15.0,22.0,91,0.00,,,0.00,8.000000,,2013-04-26 04:22:00,
2013-04-25 21:53:00,47.0,46.0,-100.00,West,263,17.0,22.0,96,0.00,,,0.00,0.000000,,2013-04-26 04:53:00,
2013-04-25 22:02:00,47.0,46.0,-100.00,West,263,17.0,22.0,96,0.00,,,0.00,0.000000,,2013-04-26 05:02:00,
2013-04-25 22:12:00,47.0,46.0,-100.00,West,263,17.0,22.0,96,0.00,,,0.00,0.000000,,2013-04-26 05:12:00,
2013-04-25 22:22:00,47.0,46.0,-100.00,West,263,17.0,22.0,96,0.00,,,0.00,0.000000,,2013-04-26 05:22:00,
2013-04-25 22:52:00,45.0,45.0,-100.00,West,261,16.0,22.0,100,0.00,,,0.00,0.000000,,2013-04-26 05:52:00,
2013-04-25 23:02:00,45.0,45.0,-100.00,West,261,16.0,22.0,100,0.00,,,0.00,0.000000,,2013-04-26 06:02:00,
2013-04-25 23:11:00,45.0,45.0,-100.00,West,261,16.0,22.0,100,0.00,,,0.00,0.000000,,2013-04-26 06:11:00,
2013-04-25 23:21:00,45.0,45.0,-100.00,West,261,16.0,22.0,100,0.00,,,0.00,0.000000,,2013-04-26 06:21:00,
2013-04-25 23:52:00,45.0,45.0,-100.00,WSW,254,14.0,21.0,100,0.00,,,0.00,0.000000,,2013-04-26 06:52:00,